FW5702 Weather Reports


Display with metric or nautical units.
time (UTC)temp
F
wind
direction
speed
MPH
gust
MPH
rain 1hr
in
rain 24hr
in
rain mn
in
humidity
%
barometer
mb
20260906223118 85 347 4.0 12.0 0.00 0.00 0.00 9 1015.8
20260906221605 86 222 4.0 12.0 0.00 0.00 0.00 9 1015.7
20260906220106 85 296 10.0 16.0 0.00 0.00 0.00 11 1015.8
20260906214603 84 5 2.0 8.0 0.00 0.00 0.00 14 1016.0
20260906213106 84 351 3.0 8.0 0.00 0.00 0.00 12 1016.3
20260906211604 84 0 3.0 11.0 0.00 0.00 0.00 11 1016.4
20260906210116 83 229 4.0 8.0 0.00 0.00 0.00 12 1016.7
20260906204615 86 37 1.0 10.0 0.00 0.00 0.00 10 1016.8
20260906203104 84 131 4.0 11.0 0.00 0.00 0.00 11 1016.9
20260906201603 82 30 3.0 8.0 0.00 0.00 0.00 14 1017.2
20260906200104 82 304 4.0 12.0 0.00 0.00 0.00 14 1017.5
20260906194609 83 169 3.0 11.0 0.00 0.00 0.00 11 1017.6
20260906193102 83 261 4.0 11.0 0.00 0.00 0.00 14 1017.8
20260906191605 82 223 4.0 10.0 0.00 0.00 0.00 11 1018.0
20260906190103 82 242 2.0 9.0 0.00 0.00 0.00 13 1018.2
20260906184609 80 123 4.0 9.0 0.00 0.00 0.00 12 1018.6
20260906183105 80 99 1.0 5.0 0.00 0.00 0.00 12 1018.9
20260906181604 79 153 2.0 5.0 0.00 0.00 0.00 14 1019.2
20260906180105 78 65 1.0 5.0 0.00 0.00 0.00 14 1019.6
20260906174602 77 60 1.0 4.0 0.00 0.00 0.00 19 1019.9
20260906173108 74 60 1.0 6.0 0.00 0.00 0.00 25 1020.3
20260906171604 71 352 2.0 6.0 0.00 0.00 0.00 29 1020.7
20260906170106 69 298 2.0 5.0 0.00 0.00 0.00 29 1020.9
20260906164623 66 51 3.0 7.0 0.00 0.00 0.00 33 1021.2
20260906163114 63 69 3.0 8.0 0.00 0.00 0.00 39 1021.3
20260906161605 61 73 2.0 5.0 0.00 0.00 0.00 44 1021.7
20260906160101 57 45 3.0 6.0 0.00 0.00 0.00 53 1021.8
20260906154602 53 57 1.0 4.0 0.00 0.00 0.00 59 1021.9
20260906153104 52 106 2.0 4.0 0.00 0.00 0.00 61 1022.0
20260906151609 51 124 2.0 5.0 0.00 0.00 0.00 60 1022.0
20260906144619 48 134 2.0 3.0 0.00 0.00 0.00 66 1022.1
20260906143116 46 0 0.0 0.0 0.00 0.00 0.00 71 1022.1
20260906141605 46 0 0.0 0.0 0.00 0.00 0.00 74 1022.1
20260906134601 43 0 0.0 0.0 0.00 0.00 0.00 75 1022.2
20260906133109 42 0 0.0 0.0 0.00 0.00 0.00 75 1021.9
20260906131610 42 0 0.0 0.0 0.00 0.00 0.00 74 1021.7
20260906130103 42 0 0.0 0.0 0.00 0.00 0.00 73 1021.7
20260906124605 43 0 0.0 0.0 0.00 0.00 0.00 75 1021.6
20260906123106 43 0 0.0 0.0 0.00 0.00 0.00 74 1021.4
20260906121602 42 0 0.0 0.0 0.00 0.00 0.00 74 1021.5
20260906120113 42 0 0.0 0.0 0.00 0.00 0.00 74 1021.3
20260906114601 41 0 0.0 0.0 0.00 0.00 0.00 71 1021.5
20260906113103 42 0 0.0 0.0 0.00 0.00 0.00 72 1021.2
20260906111600 42 0 0.0 0.0 0.00 0.00 0.00 71 1021.2
20260906110103 42 0 0.0 0.0 0.00 0.00 0.00 69 1021.3
20260906104600 43 0 0.0 0.0 0.00 0.00 0.00 69 1020.9
20260906103105 44 0 0.0 0.0 0.00 0.00 0.00 70 1021.1
20260906101604 43 0 0.0 0.0 0.00 0.00 0.00 70 1021.0
20260906100105 43 0 0.0 0.0 0.00 0.00 0.00 67 1020.9
20260906094606 44 0 0.0 0.0 0.00 0.00 0.00 66 1020.7
20260906093117 44 0 0.0 0.0 0.00 0.00 0.00 67 1020.9
20260906091605 44 0 0.0 0.0 0.00 0.00 0.00 66 1020.7
20260906090124 46 0 0.0 0.0 0.00 0.00 0.00 66 1020.8
20260906084601 46 0 0.0 0.0 0.00 0.00 0.00 66 1020.7
20260906083103 46 0 0.0 0.0 0.00 0.00 0.00 65 1020.5
20260906081604 47 0 0.0 0.0 0.00 0.00 0.00 65 1020.6
20260906080103 47 0 0.0 0.0 0.00 0.00 0.00 64 1020.6
20260906074606 48 0 0.0 0.0 0.00 0.00 0.00 65 1020.7
20260906073105 47 335 1.0 2.0 0.00 0.00 0.00 64 1020.7
20260906071610 48 334 1.0 3.0 0.00 0.00 0.00 64 1020.5
20260906070110 47 0 0.0 2.0 0.00 0.00 0.00 64 1020.6
20260906064601 49 334 0.0 3.0 0.00 0.00 0.00 65 1020.5
20260906063103 47 335 1.0 4.0 0.00 0.00 0.00 65 1020.4
20260906061602 48 335 2.0 3.0 0.00 0.00 0.00 65 1020.5
20260906060106 48 335 0.0 1.0 0.00 0.00 0.00 65 1020.3
20260906054600 48 0 0.0 1.0 0.00 0.00 0.00 65 1020.2
20260906053102 49 334 2.0 4.0 0.00 0.00 0.00 66 1020.3
20260906051606 50 0 0.0 2.0 0.00 0.00 0.00 66 1020.0
20260906050133 49 0 0.0 1.0 0.00 0.00 0.00 65 1020.1
20260906044600 49 0 1.0 3.0 0.00 0.00 0.00 63 1020.0
20260906043109 50 0 0.0 0.0 0.00 0.00 0.00 61 1019.9
20260906041604 51 0 0.0 2.0 0.00 0.00 0.00 62 1019.8
20260906040104 52 333 0.0 2.0 0.00 0.00 0.00 62 1019.7
20260906034601 54 333 1.0 3.0 0.00 0.00 0.00 60 1019.6
20260906033101 54 0 0.0 0.0 0.00 0.00 0.00 58 1019.4
20260906031601 55 0 0.0 3.0 0.00 0.00 0.00 56 1019.4
20260906030132 57 0 0.0 2.0 0.00 0.00 0.00 54 1018.9
20260906024603 58 0 0.0 3.0 0.00 0.00 0.00 52 1018.8
20260906023126 60 0 0.0 2.0 0.00 0.00 0.00 49 1018.6
20260906021614 62 333 0.0 1.0 0.00 0.00 0.00 47 1018.3
20260906020107 64 0 0.0 3.0 0.00 0.00 0.00 43 1018.2
20260906014621 68 0 1.0 3.0 0.00 0.00 0.00 38 1018.0
20260906013102 72 333 1.0 2.0 0.00 0.00 0.00 29 1018.0
20260906011607 77 0 0.0 3.0 0.00 0.00 0.00 22 1018.0
20260906010104 80 332 3.0 8.0 0.00 0.00 0.00 15 1017.9
20260906004628 81 325 4.0 8.0 0.00 0.00 0.00 14 1017.9
20260906003109 82 324 2.0 5.0 0.00 0.00 0.00 14 1018.0
20260906001604 83 329 4.0 9.0 0.00 0.00 0.00 16 1017.8
20260905234618 84 0 1.0 7.0 0.00 0.00 0.00 10 1017.8
20260905233059 84 244 1.0 4.0 0.00 0.00 0.00 12 1017.8
20260905231603 83 244 2.0 8.0 0.00 0.00 0.00 11 1017.8
20260905230106 83 337 1.0 4.0 0.00 0.00 0.00 12 1017.8
20260905224609 83 0 1.0 5.0 0.00 0.00 0.00 15 1017.9